[[{"header":{"parameterUnit":"m.s-1","parameterCategory":1,"la1":30.2991,"la2":30.254,"lo1":-89.0895,"lo2":-89.0444,"dy":0.0017,"dx":0.0017,"nx":28,"ny":28,"refTime":"2024-06-02T03:00:00:Z","depth":0,"parameterNumber":2,"parameterNumberName":"U-component_of_WINDS"},"data":[0,0,0,0,0,0,0,0,0,0,0,0,0,0,0,0,0,0,0,0,0,0,0,0,0,0,0,0,0,0,0,0,0,0,0,0,0,0,0,0,0,0,0,0,0,0,0,0,0,0,0,0,0,0,0,0,0,0,-0.1931,-0.193,0,-0.1879,-0.1878,-0.1877,-0.187,-0.1871,-0.1871,-0.1871,-0.1819,-0.1818,-0.1816,0,0,0,0,0,0,0,0,0,0,0,0,0,-0.2026,-0.2024,-0.1931,-0.193,-0.1929,-0.1879,-0.1878,-0.1877,-0.187,-0.1871,-0.1871,-0.1872,-0.182,-0.1818,-0.1816,0,0,0,0,0,0,0,0,0,0,0,0,0,-0.198,-0.2024,-0.1931,-0.192,-0.1918,-0.1879,-0.1878,-0.1877,-0.187,-0.1871,-0.1871,-0.1872,-0.1821,-0.1818,-0.1815,-0.1784,0,0,-0.1807,-0.1806,0,0,0,0,0,0,0,0,-0.1983,-0.1977,-0.1922,-0.192,-0.1919,-0.1881,-0.1892,-0.1846,-0.187,-0.1888,-0.1871,-0.1872,-0.184,-0.1835,-0.1824,-0.1782,-0.1779,-0.1807,-0.1805,-0.1804,-0.1803,0,0,0,0,0,0,0,-0.1986,-0.1979,-0.191,-0.1921,-0.1919,-0.1918,-0.1912,-0.1884,-0.1861,-0.1887,-0.1886,-0.188,-0.1839,-0.1827,-0.1823,-0.1779,-0.1807,-0.1804,-0.1803,-0.1802,-0.1709,-0.1708,0,0,0,0,0,0,-0.1991,-0.1982,-0.1912,-0.1909,-0.1953,-0.1916,-0.1909,-0.1893,-0.1861,-0.1857,-0.1879,-0.188,-0.1831,-0.1826,-0.1821,-0.1782,-0.1804,-0.1801,-0.18,-0.1709,-0.1708,-0.1708,0,0,0,0,0,0,-0.1993,-0.1985,-0.1914,-0.1945,-0.1936,-0.1913,-0.1895,-0.1891,-0.1879,-0.1855,-0.1851,-0.1871,-0.1831,-0.1825,-0.1793,-0.1781,-0.18,-0.1798,-0.171,-0.1709,-0.1708,-0.1705,0,0,0,0,0,0,-0.1996,-0.1986,-0.1973,-0.1945,-0.1934,-0.1887,-0.1894,-0.189,-0.1874,-0.1874,-0.1846,-0.1842,-0.1831,-0.1797,-0.1791,-0.1777,-0.1795,-0.1711,-0.171,-0.1708,-0.1706,-0.1704,-0.1702,0,0,0,0,0,-0.1999,-0.1974,-0.1972,-0.1964,-0.1918,-0.1886,-0.188,-0.1867,-0.1873,-0.1861,-0.1845,-0.1843,-0.1783,-0.1794,-0.1786,-0.1772,-0.1712,-0.171,-0.1708,-0.1707,-0.1704,-0.1702,0,0,0,0,0,0,-0.2002,-0.197,-0.1968,-0.1933,-0.1912,-0.1885,-0.1868,-0.1865,-0.1842,-0.1843,-0.1829,-0.1823,-0.1792,-0.1779,-0.1792,-0.174,-0.1748,-0.1745,-0.175,-0.1747,-0.1745,-0.1749,-0.1793,0,0,0,0,0,-0.1999,-0.1975,-0.1949,-0.192,-0.191,-0.1891,-0.1877,-0.1869,-0.1847,-0.1838,-0.182,-0.18,-0.1776,-0.1761,-0.1738,-0.1704,-0.1699,-0.1691,-0.1689,-0.1687,-0.1684,-0.1666,-0.1662,-0.1701,-0.1701,-0.1702,0,0,-0.1991,-0.1971,-0.1957,-0.192,-0.1903,-0.188,-0.1884,-0.1858,-0.1841,-0.1834,-0.1803,-0.179,-0.1766,-0.1734,-0.1718,-0.1722,-0.1672,-0.1685,-0.1683,-0.1681,-0.1664,-0.166,-0.1657,-0.17,-0.17,-0.1701,0,0,-0.1966,-0.1948,-0.1922,-0.1905,-0.1879,-0.1867,-0.1861,-0.1834,-0.1825,-0.1793,-0.1788,-0.1768,-0.1727,-0.171,-0.1697,-0.1666,-0.1663,-0.1659,-0.1647,-0.163,-0.1627,-0.1624,-0.1613,-0.161,-0.1656,-0.1656,-0.1656,0,-0.196,-0.1923,-0.191,-0.1885,-0.1869,-0.1862,-0.1837,-0.1821,-0.1789,-0.1779,-0.1783,-0.1732,-0.1716,-0.168,-0.1672,-0.1661,-0.1654,-0.1662,-0.1628,-0.1625,-0.1623,-0.1612,-0.1608,-0.1655,-0.1655,-0.1656,-0.1656,0,-0.1918,-0.1892,-0.1875,-0.1844,-0.1827,-0.1802,-0.1785,-0.1769,-0.1763,-0.1751,-0.172,-0.1699,-0.1672,-0.1663,-0.1657,-0.1626,-0.1629,-0.1631,-0.1639,-0.1619,-0.1609,-0.1605,-0.1655,-0.1655,-0.1655,-0.1655,0,0,-0.1892,-0.1854,-0.1848,-0.1834,-0.1805,-0.1786,-0.1761,-0.1734,-0.1721,-0.17,-0.1679,-0.1645,-0.1646,-0.1631,-0.1623,-0.1608,-0.1585,-0.1611,-0.161,-0.1607,-0.155,-0.1549,-0.1545,-0.1583,-0.1582,-0.1582,-0.1553,0,-0.1863,-0.1817,-0.1805,-0.1767,-0.1744,-0.1737,-0.1716,-0.1696,-0.1684,-0.1663,-0.165,-0.1626,-0.163,-0.1621,-0.1605,-0.1591,-0.1573,-0.1593,-0.1564,-0.1563,-0.157,-0.154,-0.1538,-0.1512,-0.1549,-0.1548,-0.1547,0,-0.1823,-0.1801,-0.176,-0.1735,-0.1724,-0.1705,-0.168,-0.166,-0.1638,-0.163,-0.1613,-0.1607,-0.1581,-0.159,-0.1555,-0.1569,-0.1557,-0.1548,-0.1547,-0.1544,-0.1554,-0.1536,-0.1503,-0.1499,-0.1541,-0.1542,-0.1542,0,-0.1809,-0.1768,-0.1739,-0.1727,-0.1697,-0.1683,-0.167,-0.1649,-0.1634,-0.1612,-0.1602,-0.1578,-0.1565,-0.1547,-0.1534,-0.1542,-0.1501,-0.1509,-0.1494,-0.1494,-0.1486,-0.1486,-0.145,-0.1477,-0.1478,-0.1478,-0.1478,0,-0.1778,-0.1754,-0.1732,-0.1714,-0.1687,-0.1673,-0.1647,-0.1633,-0.1615,-0.1594,-0.1588,-0.1569,-0.1553,-0.1533,-0.1523,-0.1496,-0.149,-0.1484,-0.1481,-0.1484,-0.1485,-0.1476,-0.1478,-0.1477,-0.1477,-0.1477,-0.1477,0,-0.1758,-0.1742,-0.171,-0.1683,-0.1676,-0.1657,-0.1635,-0.1618,-0.1606,-0.158,-0.1574,-0.1555,-0.153,-0.1516,-0.1485,-0.1479,-0.1449,-0.1447,-0.1456,-0.1455,-0.1441,-0.1443,-0.1398,-0.1392,-0.1423,-0.1423,-0.1423,0,-0.1739,-0.172,-0.1692,-0.1678,-0.1664,-0.1641,-0.1626,-0.1612,-0.1596,-0.157,-0.1556,-0.1531,-0.1511,-0.1472,-0.1456,-0.1432,-0.143,-0.1416,-0.1427,-0.1431,-0.1431,-0.1432,-0.143,-0.1415,-0.1414,-0.1414,-0.1414,0,-0.1708,-0.1701,-0.1679,-0.1654,-0.1636,-0.1616,-0.1596,-0.1585,-0.1568,-0.1551,-0.1525,-0.1509,-0.1478,-0.1453,-0.1429,-0.1416,-0.1412,-0.1411,-0.1406,-0.1409,-0.1415,-0.1412,-0.1451,-0.1412,-0.1412,-0.1412,-0.1412,-0.1413,-0.1688,-0.1671,-0.1648,-0.1624,-0.1608,-0.1589,-0.1572,-0.1557,-0.1536,-0.1509,-0.1502,-0.1476,-0.1455,-0.1422,-0.1408,-0.1388,-0.139,-0.1384,-0.1382,-0.1381,-0.138,-0.1418,-0.1383,-0.1383,-0.1383,-0.1383,-0.1383,0,-0.1657,-0.1642,-0.162,-0.1592,-0.1573,-0.1571,-0.1549,-0.1533,-0.151,-0.149,-0.147,-0.1442,-0.1418,-0.14,-0.1376,-0.1363,-0.1361,-0.1358,-0.1358,-0.1356,-0.1379,-0.1386,-0.136,-0.136,-0.136,-0.136,-0.136,-0.136,-0.1638,-0.161,-0.16,-0.1564,-0.1549,-0.1523,-0.1511,-0.1494,-0.1478,-0.1447,-0.1427,-0.1415,-0.1397,-0.1371,-0.135,-0.1345,-0.1337,-0.1334,-0.1329,-0.1351,-0.1354,-0.1356,-0.1362,-0.1332,-0.1332,-0.1307,-0.1307,-0.1307]},{"header":{"parameterUnit":"m.s-1","parameterCategory":1,"la1":30.2991,"la2":30.254,"lo1":-89.0895,"lo2":-89.0444,"dy":0.0017,"dx":0.0017,"nx":28,"ny":28,"refTime":"2024-06-02T03:00:00:Z","depth":0,"parameterNumber":3,"parameterNumberName":"V-component_of_WINDS"},"data":[0,0,0,0,0,0,0,0,0,0,0,0,0,0,0,0,0,0,0,0,0,0,0,0,0,0,0,0,0,0,0,0,0,0,0,0,0,0,0,0,0,0,0,0,0,0,0,0,0,0,0,0,0,0,0,0,0,0,3.7691,3.7692,0,3.7787,3.7788,3.7789,3.775,3.7748,3.7746,3.7744,3.7839,3.7843,3.7848,0,0,0,0,0,0,0,0,0,0,0,0,0,3.7469,3.7474,3.7691,3.7692,3.7693,3.7787,3.7788,3.779,3.7751,3.7748,3.7745,3.7743,3.7837,3.7842,3.7848,0,0,0,0,0,0,0,0,0,0,0,0,0,3.7566,3.7475,3.7691,3.7685,3.7686,3.7787,3.7788,3.779,3.7751,3.7748,3.7745,3.7741,3.7835,3.7842,3.7849,3.796,0,0,3.787,3.7873,0,0,0,0,0,0,0,0,3.756,3.7574,3.7685,3.7686,3.7687,3.7753,3.7745,3.7847,3.7752,3.7726,3.7744,3.774,3.7813,3.7821,3.7847,3.7964,3.7968,3.7871,3.7875,3.7878,3.788,0,0,0,0,0,0,0,3.7554,3.7569,3.7729,3.7687,3.7688,3.7677,3.7687,3.7764,3.7787,3.7728,3.7726,3.7738,3.7812,3.784,3.7849,3.7969,3.787,3.7877,3.7881,3.7884,3.8182,3.8185,0,0,0,0,0,0,3.7547,3.7564,3.7726,3.7732,3.7614,3.7684,3.7695,3.7735,3.7786,3.7791,3.7741,3.7736,3.783,3.7841,3.7852,3.7985,3.7878,3.7884,3.7888,3.8178,3.8182,3.8186,0,0,0,0,0,0,3.7543,3.7562,3.7722,3.7647,3.7667,3.7691,3.7737,3.7739,3.7767,3.7796,3.7799,3.7765,3.7828,3.7842,3.7933,3.7987,3.7887,3.7894,3.8173,3.8179,3.8184,3.8252,0,0,0,0,0,0,3.7537,3.7561,3.7604,3.7649,3.7671,3.7803,3.774,3.7743,3.7779,3.7774,3.7819,3.7824,3.7826,3.7923,3.794,3.7995,3.7899,3.8169,3.8176,3.8183,3.8245,3.8259,3.8271,0,0,0,0,0,3.7529,3.7619,3.7607,3.7626,3.7726,3.7807,3.7819,3.7821,3.7784,3.7827,3.7845,3.7822,3.7979,3.7933,3.7952,3.801,3.8165,3.8174,3.8182,3.8239,3.8256,3.8271,0,0,0,0,0,0,3.7579,3.7624,3.7612,3.7719,3.7759,3.78,3.7855,3.7839,3.789,3.7883,3.7882,3.7893,3.7987,3.8007,3.7955,3.8119,3.8066,3.8079,3.8103,3.8119,3.8132,3.8126,3.7905,0,0,0,0,0,3.7602,3.7665,3.7701,3.7792,3.7813,3.7831,3.7866,3.7864,3.7905,3.7922,3.7947,3.7987,3.8045,3.8083,3.8138,3.8247,3.8256,3.8296,3.8309,3.832,3.8331,3.839,3.8408,3.8214,3.8214,3.8214,0,0,3.7652,3.7684,3.7724,3.7803,3.7834,3.7898,3.7845,3.7915,3.7962,3.7932,3.802,3.804,3.8084,3.8185,3.823,3.8204,3.8386,3.8331,3.8339,3.8344,3.84,3.8418,3.8435,3.822,3.8219,3.8218,0,0,3.7774,3.7806,3.7885,3.7917,3.7965,3.7976,3.7995,3.8038,3.805,3.8139,3.8117,3.8172,3.8272,3.8305,3.8335,3.8469,3.8449,3.8486,3.8555,3.8612,3.8628,3.8641,3.8689,3.8706,3.8497,3.8497,3.8497,0,3.7829,3.7926,3.7927,3.7999,3.8034,3.801,3.809,3.812,3.8184,3.8208,3.8178,3.8303,3.8331,3.8439,3.8472,3.8497,3.8517,3.8481,3.8626,3.8639,3.8652,3.8697,3.8715,3.8501,3.8501,3.85,3.85,0,3.7991,3.8058,3.8116,3.8179,3.822,3.8296,3.8307,3.8348,3.8342,3.8356,3.8445,3.8478,3.8539,3.8565,3.8559,3.8672,3.8654,3.8625,3.8572,3.8674,3.8717,3.8735,3.8508,3.8506,3.8505,3.8504,0,0,3.8149,3.8211,3.8232,3.8261,3.8311,3.8363,3.8436,3.8497,3.8532,3.8576,3.8637,3.8722,3.8696,3.8729,3.8727,3.8777,3.8881,3.8742,3.8743,3.8767,3.9007,3.9028,3.9049,3.8868,3.8871,3.8874,3.9003,0,3.8276,3.8407,3.8409,3.8528,3.859,3.8568,3.8631,3.8669,3.8683,3.8736,3.8751,3.8811,3.8772,3.8792,3.8841,3.8858,3.8929,3.8849,3.8924,3.8927,3.8915,3.9071,3.9095,3.9215,3.902,3.9022,3.9024,0,3.8442,3.8492,3.8618,3.8659,3.8685,3.8743,3.8798,3.885,3.8891,3.8898,3.8935,3.8925,3.8999,3.8943,3.9044,3.8989,3.9019,3.9033,3.9037,3.9045,3.8982,3.9083,3.9253,3.9271,3.9051,3.9049,3.9047,0,3.8545,3.8644,3.8732,3.8756,3.8807,3.8848,3.887,3.8908,3.8944,3.8992,3.9016,3.9071,3.9102,3.9144,3.9149,3.9108,3.925,3.9195,3.9257,3.9257,3.9289,3.9287,3.9467,3.9308,3.9307,3.9307,3.9307,0,3.8687,3.8764,3.8779,3.8833,3.8919,3.892,3.9005,3.9024,3.9058,3.9114,3.9097,3.915,3.9153,3.9207,3.9211,3.9294,3.9307,3.9314,3.9314,3.9316,3.9315,3.9337,3.9329,3.9312,3.9311,3.931,3.9309,0,3.8817,3.8829,3.8924,3.8964,3.8976,3.9037,3.9071,3.9122,3.9134,3.9206,3.9222,3.9241,3.9304,3.9313,3.9386,3.9388,3.9488,3.9479,3.9474,3.9473,3.9535,3.953,3.9736,3.9762,3.9586,3.9587,3.9589,0,3.8907,3.8966,3.9013,3.905,3.9075,3.9135,3.9172,3.9175,3.9214,3.9265,3.9309,3.9371,3.942,3.9521,3.954,3.9596,3.9588,3.9656,3.9596,3.9596,3.959,3.9586,3.9592,3.9668,3.967,3.9672,3.9673,0,3.9065,3.9069,3.9123,3.918,3.9225,3.927,3.9312,3.9343,3.935,3.9395,3.9459,3.9497,3.9572,3.9633,3.9688,3.9709,3.9693,3.9692,3.9709,3.9712,3.9707,3.9711,3.9506,3.9687,3.9686,3.9685,3.9684,3.9683,3.9179,3.923,3.9271,3.9332,3.9364,3.9404,3.9454,3.9472,3.9526,3.9588,3.9586,3.9657,3.9695,3.9767,3.9793,3.9847,3.9825,3.985,3.9856,3.9863,3.9869,3.9698,3.9857,3.9856,3.9856,3.9856,3.9856,0,3.9337,3.9362,3.9418,3.9478,3.9525,3.9506,3.9551,3.9592,3.9655,3.9693,3.9742,3.9815,3.9874,3.9897,3.9955,3.9994,3.9987,4.0008,4.0006,4.0011,3.9886,3.9865,4.0013,4.0013,4.0013,4.0013,4.0013,4.0012,3.9425,3.9511,3.9519,3.9621,3.9644,3.9715,3.9742,3.9778,3.9808,3.9891,3.994,3.9956,3.9988,4.0047,4.0099,4.0104,4.0126,4.0151,4.0153,4.0036,4.002,4.0005,3.9986,4.0156,4.0156,4.0274,4.0275,4.0276]}]]